[[{"header":{"parameterUnit":"m.s-1","parameterCategory":2,"la1":30.2991,"la2":30.254,"lo1":-89.0895,"lo2":-89.0444,"dy":0.0017,"dx":0.0017,"nx":28,"ny":28,"refTime":"2024-05-02T09:00:00:Z","depth":"0","parameterNumber":2,"parameterNumberName":"U-component_of_CURRENTS"},"data":[0,0,0,0,0,0,0,0,0,0,0,0,0,0,0,0,0,0,0,0,0,0,0,0,0,0,0,0,0,0,0,0,0,0,0,0,0,0,0,0,0,0,0,0,0,0,0,0,0,0,0,0,0,0,0,0,0,0,0.2104,0.2104,0,0.2128,0.2128,0.2128,0.2118,0.2118,0.2118,0.2117,0.2218,0.2221,0.2224,0,0,0,0,0,0,0,0,0,0,0,0,0,0.2094,0.2094,0.2104,0.2104,0.2105,0.2128,0.2128,0.2128,0.2119,0.2118,0.2117,0.2117,0.2217,0.2221,0.2225,0,0,0,0,0,0,0,0,0,0,0,0,0,0.2105,0.2094,0.2104,0.2103,0.2104,0.2128,0.2128,0.2129,0.2119,0.2118,0.2117,0.2117,0.2216,0.2221,0.2225,0.2269,0,0,0.224,0.2242,0,0,0,0,0,0,0,0,0.2105,0.2105,0.2103,0.2103,0.2104,0.212,0.2162,0.218,0.2119,0.2112,0.2117,0.2116,0.2194,0.22,0.2204,0.2273,0.2278,0.224,0.2243,0.2245,0.2246,0,0,0,0,0,0,0,0.2104,0.2105,0.2112,0.2103,0.2104,0.2117,0.2118,0.2165,0.2157,0.2112,0.2112,0.2117,0.2194,0.2199,0.2207,0.2279,0.224,0.2244,0.2247,0.2249,0.2377,0.2378,0,0,0,0,0,0,0.2101,0.2104,0.2112,0.2113,0.2104,0.2118,0.2118,0.2115,0.2155,0.216,0.2117,0.2116,0.2192,0.2201,0.221,0.2257,0.2245,0.2249,0.2252,0.2377,0.2377,0.2378,0,0,0,0,0,0,0.2101,0.2101,0.2111,0.211,0.2113,0.2119,0.2115,0.2116,0.2119,0.2158,0.2164,0.2119,0.2191,0.2204,0.2238,0.2261,0.2251,0.2256,0.2376,0.2377,0.2378,0.2356,0,0,0,0,0,0,0.21,0.2101,0.2101,0.211,0.2112,0.213,0.2116,0.2117,0.2124,0.2122,0.2163,0.2171,0.2192,0.2231,0.2243,0.2267,0.2259,0.2375,0.2376,0.2378,0.2356,0.2356,0.2356,0,0,0,0,0,0.21,0.2104,0.2101,0.2102,0.2111,0.2131,0.2134,0.2135,0.2124,0.2133,0.2145,0.217,0.2247,0.2235,0.2249,0.2275,0.2375,0.2376,0.2377,0.2356,0.2356,0.2356,0,0,0,0,0,0,0.2103,0.2104,0.21,0.2105,0.2119,0.213,0.214,0.2137,0.2153,0.2151,0.2176,0.2186,0.2227,0.2253,0.2239,0.2315,0.2317,0.2321,0.2296,0.2296,0.2296,0.2301,0.2263,0,0,0,0,0,0.2103,0.2104,0.2113,0.2118,0.2125,0.2132,0.214,0.2141,0.2155,0.2159,0.2182,0.2212,0.2245,0.2269,0.2304,0.2349,0.2362,0.2375,0.2375,0.2375,0.2388,0.2416,0.2419,0.2382,0.2382,0.2382,0,0,0.2104,0.2107,0.2106,0.2119,0.2128,0.2144,0.2134,0.215,0.2163,0.2173,0.2198,0.2216,0.2256,0.2295,0.2318,0.232,0.2388,0.2377,0.2376,0.239,0.2418,0.2421,0.2424,0.2383,0.2383,0.2383,0,0,0.2112,0.2112,0.2116,0.213,0.2148,0.2157,0.2161,0.2173,0.2179,0.2207,0.2211,0.2235,0.2293,0.2314,0.2336,0.2363,0.2385,0.2379,0.2389,0.2415,0.2418,0.2421,0.2418,0.2421,0.2381,0.2381,0.2381,0,0.2114,0.2117,0.2124,0.2138,0.2151,0.2161,0.2176,0.2191,0.2211,0.2224,0.2217,0.2281,0.2305,0.2352,0.2351,0.2366,0.2372,0.2382,0.2414,0.2418,0.2421,0.2417,0.2421,0.238,0.238,0.2381,0.2381,0,0.2125,0.2132,0.2141,0.2157,0.2176,0.2192,0.2214,0.2232,0.2239,0.2253,0.2295,0.2315,0.2355,0.2363,0.2365,0.2406,0.2397,0.2406,0.241,0.2423,0.2418,0.2422,0.2379,0.2379,0.238,0.238,0,0,0.2113,0.214,0.2142,0.2148,0.2185,0.2197,0.2233,0.2265,0.2286,0.231,0.2339,0.2377,0.2384,0.2408,0.2415,0.243,0.2439,0.2425,0.2427,0.2414,0.2475,0.2417,0.2416,0.2451,0.2453,0.2454,0.2452,0,0.2117,0.2138,0.2154,0.2177,0.219,0.2218,0.2249,0.2282,0.2314,0.2348,0.2377,0.2412,0.2405,0.2419,0.2435,0.2446,0.2454,0.2438,0.2472,0.2473,0.2414,0.2421,0.2275,0.2258,0.2456,0.2457,0.2457,0,0.2115,0.2131,0.2149,0.2179,0.2187,0.2206,0.2255,0.2286,0.2348,0.2375,0.2422,0.2444,0.2479,0.2466,0.2499,0.2488,0.2483,0.2482,0.2482,0.2445,0.2424,0.2284,0.2258,0.2189,0.2464,0.2463,0.2463,0,0.2091,0.2122,0.2132,0.2144,0.2186,0.2201,0.223,0.2292,0.2327,0.2397,0.2425,0.2479,0.2498,0.2519,0.2521,0.2513,0.2545,0.2537,0.2479,0.2474,0.2367,0.2351,0.2276,0.256,0.256,0.256,0.256,0,0.2081,0.2087,0.2118,0.2124,0.2144,0.2182,0.222,0.2264,0.2334,0.2369,0.2433,0.2467,0.2512,0.2536,0.2536,0.2519,0.2563,0.2484,0.2477,0.2352,0.2335,0.2286,0.2264,0.256,0.256,0.256,0.256,0,0.2048,0.2068,0.2081,0.2119,0.2131,0.2147,0.2211,0.2238,0.2311,0.236,0.2382,0.2463,0.2493,0.2526,0.2554,0.2524,0.2429,0.2506,0.2342,0.2316,0.2182,0.2164,0.1999,0.1947,0.2434,0.2432,0.2431,0,0.2032,0.2035,0.2069,0.2073,0.2087,0.2121,0.214,0.2221,0.2256,0.2347,0.2359,0.242,0.2449,0.2477,0.2449,0.244,0.2372,0.2282,0.2244,0.2154,0.2132,0.2031,0.1994,0.2082,0.2078,0.2074,0.2072,0,0.2005,0.2015,0.2024,0.2036,0.2048,0.2067,0.2105,0.2132,0.2211,0.2244,0.2298,0.2334,0.237,0.2302,0.2289,0.2264,0.213,0.2215,0.2168,0.1888,0.1728,0.1681,0.2093,0.2043,0.2046,0.2048,0.205,0.2051,0.1981,0.1977,0.1985,0.1983,0.1995,0.1992,0.198,0.2021,0.2049,0.2066,0.2178,0.2168,0.2148,0.212,0.2083,0.1914,0.1949,0.181,0.1807,0.1722,0.1632,0.1973,0.1894,0.1896,0.1898,0.1899,0.1901,0,0.1939,0.1929,0.193,0.191,0.188,0.1917,0.1927,0.1894,0.1869,0.1921,0.195,0.1896,0.1806,0.1775,0.1625,0.1513,0.1433,0.145,0.128,0.1279,0.1615,0.1563,0.1352,0.1352,0.1352,0.1352,0.1352,0.1352,0.1917,0.1885,0.1871,0.1794,0.1774,0.1708,0.1692,0.1659,0.1673,0.1609,0.1564,0.1587,0.1556,0.1388,0.1225,0.1197,0.1091,0.0971,0.1043,0.1288,0.1321,0.1353,0.1299,0.1036,0.1035,0.0607,0.0604,0.0601]},{"header":{"parameterUnit":"m.s-1","parameterCategory":2,"la1":30.2991,"la2":30.254,"lo1":-89.0895,"lo2":-89.0444,"dy":0.0017,"dx":0.0017,"nx":28,"ny":28,"refTime":"2024-05-02T09:00:00:Z","depth":"0","parameterNumber":3,"parameterNumberName":"V-component_of_CURRENTS"},"data":[0,0,0,0,0,0,0,0,0,0,0,0,0,0,0,0,0,0,0,0,0,0,0,0,0,0,0,0,0,0,0,0,0,0,0,0,0,0,0,0,0,0,0,0,0,0,0,0,0,0,0,0,0,0,0,0,0,0,0.0318,0.0318,0,0.0309,0.0309,0.0309,0.0291,0.0291,0.0291,0.029,0.0225,0.0223,0.0222,0,0,0,0,0,0,0,0,0,0,0,0,0,0.03,0.03,0.0318,0.0318,0.0318,0.0309,0.0309,0.0309,0.0291,0.0291,0.0291,0.029,0.0225,0.0223,0.0222,0,0,0,0,0,0,0,0,0,0,0,0,0,0.03,0.03,0.0318,0.0309,0.0308,0.0309,0.0309,0.0309,0.0291,0.0291,0.029,0.029,0.0226,0.0224,0.0221,0.0216,0,0,0.0215,0.0214,0,0,0,0,0,0,0,0,0.03,0.0301,0.031,0.0309,0.0308,0.0302,0.0278,0.0275,0.0291,0.0297,0.029,0.029,0.0246,0.0242,0.0241,0.0213,0.021,0.0214,0.0213,0.0212,0.0211,0,0,0,0,0,0,0,0.03,0.0301,0.0314,0.031,0.0309,0.0298,0.0298,0.0278,0.0272,0.0296,0.0295,0.0296,0.0245,0.0243,0.0239,0.0209,0.0214,0.0212,0.0211,0.021,0.0194,0.0195,0,0,0,0,0,0,0.0305,0.0301,0.0314,0.0314,0.0304,0.0299,0.0298,0.0304,0.0274,0.0269,0.0296,0.0295,0.0247,0.0242,0.0237,0.0246,0.0212,0.021,0.0209,0.0193,0.0194,0.0195,0,0,0,0,0,0,0.0304,0.0306,0.0315,0.0307,0.0308,0.03,0.0306,0.0304,0.0304,0.0274,0.0268,0.0298,0.0247,0.024,0.0233,0.0242,0.0209,0.0207,0.0192,0.0193,0.0194,0.0253,0,0,0,0,0,0,0.0304,0.0306,0.0311,0.0308,0.0308,0.0321,0.0306,0.0304,0.0305,0.0303,0.0274,0.0267,0.0246,0.0237,0.0231,0.0239,0.0205,0.0191,0.0192,0.0194,0.0249,0.0256,0.0261,0,0,0,0,0,0.0303,0.0314,0.0311,0.0313,0.0316,0.0322,0.0321,0.0313,0.0305,0.031,0.0297,0.0268,0.0243,0.0236,0.0229,0.0236,0.019,0.0192,0.0194,0.0247,0.0254,0.0261,0,0,0,0,0,0,0.0307,0.0313,0.031,0.0322,0.0324,0.0319,0.0323,0.0317,0.0311,0.0309,0.0279,0.0273,0.0271,0.0248,0.0241,0.0238,0.0212,0.0212,0.0254,0.0261,0.0267,0.0275,0.0203,0,0,0,0,0,0.0311,0.0322,0.0323,0.0333,0.0336,0.033,0.0331,0.0327,0.0322,0.0319,0.0301,0.0283,0.0274,0.0264,0.025,0.0246,0.0225,0.0247,0.0253,0.0258,0.0261,0.0246,0.0251,0.0202,0.0201,0.0201,0,0,0.0314,0.032,0.0325,0.0334,0.0335,0.0348,0.033,0.0337,0.0348,0.0311,0.032,0.0302,0.0279,0.028,0.0276,0.026,0.0262,0.026,0.0265,0.0265,0.0249,0.0254,0.0258,0.0203,0.0203,0.0202,0,0,0.0331,0.0333,0.0349,0.0355,0.0362,0.0362,0.0366,0.0366,0.0366,0.0372,0.0353,0.0346,0.0326,0.0316,0.0307,0.0335,0.0296,0.0328,0.0359,0.0345,0.0349,0.0352,0.0336,0.0338,0.0328,0.0328,0.0328,0,0.0333,0.0357,0.0354,0.0372,0.0383,0.0372,0.0393,0.0394,0.0392,0.0397,0.0382,0.037,0.0346,0.0351,0.0361,0.0347,0.0332,0.0334,0.0353,0.0355,0.0357,0.034,0.0341,0.0331,0.033,0.033,0.033,0,0.0364,0.0382,0.0393,0.0416,0.0425,0.0442,0.0445,0.0452,0.0449,0.0449,0.0455,0.0429,0.0421,0.0412,0.0393,0.04,0.0382,0.0364,0.0335,0.0366,0.0346,0.0345,0.0335,0.0334,0.0333,0.0332,0,0,0.0375,0.0409,0.0415,0.0435,0.0452,0.0466,0.0485,0.0504,0.0525,0.0511,0.0531,0.0512,0.0497,0.0486,0.046,0.0444,0.0443,0.0412,0.041,0.0396,0.0412,0.0416,0.0415,0.0427,0.0428,0.0428,0.0393,0,0.0403,0.0449,0.0458,0.0502,0.0527,0.0527,0.0549,0.0561,0.057,0.0584,0.0556,0.0566,0.0526,0.0525,0.0504,0.0461,0.0444,0.0454,0.0384,0.0382,0.0381,0.0416,0.0463,0.0438,0.0393,0.0393,0.0392,0,0.0435,0.0464,0.0513,0.0554,0.0565,0.0587,0.0626,0.0647,0.0659,0.0665,0.0662,0.0641,0.0621,0.0581,0.0522,0.053,0.0478,0.0438,0.0435,0.0418,0.0385,0.0399,0.0439,0.0417,0.0391,0.0391,0.0391,0,0.0456,0.0504,0.0548,0.0562,0.0604,0.0623,0.0645,0.067,0.0707,0.0719,0.0738,0.0708,0.0698,0.0632,0.0551,0.0537,0.048,0.0449,0.0403,0.0402,0.0418,0.0419,0.0429,0.0407,0.0407,0.0407,0.0407,0,0.0489,0.0523,0.0562,0.0587,0.0642,0.0655,0.0717,0.0732,0.077,0.0821,0.0782,0.0812,0.071,0.0665,0.0578,0.0498,0.0502,0.0417,0.0398,0.044,0.0443,0.0404,0.0375,0.0406,0.0406,0.0406,0.0407,0,0.0511,0.0535,0.0588,0.0636,0.0656,0.0696,0.0768,0.0817,0.0838,0.0898,0.0905,0.0893,0.0843,0.0734,0.0632,0.0544,0.045,0.0425,0.0482,0.047,0.0405,0.0377,0.0357,0.0341,0.0371,0.0371,0.0371,0,0.0527,0.0557,0.0626,0.0664,0.0689,0.0752,0.0802,0.0849,0.0911,0.0959,0.0995,0.0964,0.0971,0.0823,0.0677,0.0534,0.0471,0.0459,0.0439,0.042,0.0375,0.0364,0.0352,0.0481,0.0482,0.0483,0.0483,0,0.056,0.0583,0.0629,0.0708,0.0767,0.0844,0.0917,0.0977,0.1035,0.1089,0.1158,0.1167,0.104,0.0945,0.0739,0.063,0.0468,0.0468,0.0439,0.0461,0.046,0.043,0.0477,0.049,0.0489,0.0489,0.0488,0.0488,0.0584,0.0622,0.0685,0.076,0.0832,0.0927,0.0995,0.1081,0.1186,0.127,0.1283,0.1318,0.1167,0.092,0.0775,0.0551,0.0523,0.0479,0.0445,0.0434,0.0434,0.0496,0.0492,0.0492,0.0491,0.0491,0.049,0,0.0617,0.0664,0.0733,0.0825,0.0904,0.094,0.1069,0.1143,0.1265,0.1356,0.1424,0.1398,0.1234,0.1011,0.0718,0.0567,0.0506,0.0475,0.0479,0.0463,0.0518,0.0538,0.0558,0.0558,0.0558,0.0558,0.0558,0.0558,0.0638,0.0706,0.0742,0.087,0.0934,0.1049,0.1125,0.1232,0.1331,0.145,0.1497,0.1521,0.1386,0.0927,0.0644,0.0563,0.0473,0.0451,0.0382,0.0432,0.043,0.0428,0.0443,0.0442,0.0442,0.0374,0.0373,0.0372]}],[{"header":{"parameterUnit":"m.s-1","parameterCategory":2,"la1":30.2991,"la2":30.254,"lo1":-89.0895,"lo2":-89.0444,"dy":0.0017,"dx":0.0017,"nx":28,"ny":28,"refTime":"2024-05-02T09:00:00:Z","depth":"2","parameterNumber":2,"parameterNumberName":"U-component_of_CURRENTS"},"data":[0,0,0,0,0,0,0,0,0,0,0,0,0,0,0,0,0,0,0,0,0,0,0,0,0,0,0,0,0,0,0,0,0,0,0,0,0,0,0,0,0,0,0,0,0,0,0,0,0,0,0,0,0,0,0,0,0,0,0.1944,0.1945,0,0.1953,0.1953,0.1953,0.1946,0.1946,0.1946,0.1946,0.1988,0.1989,0.199,0,0,0,0,0,0,0,0,0,0,0,0,0,0.1945,0.1945,0.1944,0.1945,0.1945,0.1953,0.1953,0.1953,0.1946,0.1946,0.1946,0.1946,0.1987,0.1989,0.199,0,0,0,0,0,0,0,0,0,0,0,0,0,0.1947,0.1945,0.1944,0.1944,0.1944,0.1953,0.1953,0.1953,0.1946,0.1946,0.1946,0.1946,0.1987,0.1989,0.199,0.2007,0,0,0.1996,0.1997,0,0,0,0,0,0,0,0,0.1947,0.1947,0.1943,0.1944,0.1944,0.195,0.1969,0.1973,0.1946,0.1944,0.1946,0.1946,0.1979,0.1982,0.1981,0.2009,0.2011,0.1996,0.1998,0.1998,0.1999,0,0,0,0,0,0,0,0.1947,0.1947,0.1946,0.1944,0.1944,0.1951,0.1951,0.197,0.1962,0.1944,0.1944,0.1947,0.1979,0.1979,0.1982,0.2011,0.1996,0.1998,0.1999,0.2,0.2058,0.2058,0,0,0,0,0,0,0.1948,0.1946,0.1946,0.1947,0.1947,0.1951,0.1951,0.1947,0.1961,0.1963,0.1948,0.1947,0.1976,0.198,0.1984,0.2023,0.1998,0.2,0.2001,0.2057,0.2058,0.2058,0,0,0,0,0,0,0.1947,0.1947,0.1946,0.1948,0.1949,0.1951,0.1947,0.1947,0.1952,0.1964,0.1966,0.1953,0.1976,0.1981,0.2003,0.2023,0.2001,0.2003,0.2057,0.2057,0.2058,0.2089,0,0,0,0,0,0,0.1947,0.1947,0.1948,0.1948,0.1949,0.1957,0.1948,0.1948,0.1955,0.1954,0.197,0.1973,0.1976,0.2,0.2005,0.2026,0.2004,0.2056,0.2057,0.2058,0.2087,0.209,0.2093,0,0,0,0,0,0.1947,0.195,0.1948,0.1948,0.1949,0.1958,0.1959,0.1959,0.1956,0.1962,0.1969,0.1972,0.2008,0.2002,0.2008,0.2029,0.2056,0.2057,0.2058,0.2086,0.209,0.2093,0,0,0,0,0,0,0.1952,0.1949,0.1947,0.1949,0.1956,0.1958,0.1965,0.1964,0.1973,0.1975,0.1981,0.1985,0.2013,0.2014,0.2007,0.2046,0.2032,0.2034,0.2051,0.2055,0.2058,0.2059,0.2006,0,0,0,0,0,0.1953,0.1953,0.1956,0.1958,0.1963,0.1965,0.197,0.1971,0.1978,0.1981,0.1991,0.2002,0.2021,0.2031,0.2046,0.2069,0.2072,0.2084,0.2087,0.2089,0.2093,0.2121,0.2127,0.2061,0.2061,0.2061,0,0,0.1955,0.1956,0.1955,0.196,0.1964,0.1974,0.1967,0.1978,0.1989,0.1987,0.2006,0.2018,0.2029,0.2055,0.2067,0.2058,0.2107,0.2091,0.2093,0.2095,0.2123,0.2129,0.2135,0.2062,0.2061,0.2061,0,0,0.196,0.1961,0.1962,0.1971,0.1982,0.1986,0.1992,0.1999,0.2005,0.2025,0.2028,0.205,0.2072,0.2085,0.2094,0.2122,0.2124,0.2125,0.2142,0.2169,0.2175,0.218,0.2181,0.2186,0.2124,0.2124,0.2124,0,0.1964,0.1962,0.1967,0.1975,0.1984,0.1993,0.2002,0.2013,0.2027,0.2039,0.2036,0.2078,0.2088,0.2123,0.2128,0.2131,0.2136,0.213,0.2174,0.2179,0.2184,0.2184,0.2189,0.2125,0.2125,0.2125,0.2125,0,0.1968,0.1972,0.1978,0.1988,0.2001,0.2012,0.2029,0.2046,0.2056,0.2068,0.2106,0.212,0.2145,0.2152,0.2149,0.2189,0.2177,0.2178,0.2168,0.2193,0.2191,0.2196,0.2128,0.2127,0.2127,0.2126,0,0,0.1958,0.1975,0.1976,0.1981,0.2008,0.2015,0.2046,0.207,0.2093,0.2115,0.2145,0.2175,0.2187,0.2197,0.2204,0.2222,0.2255,0.2213,0.2214,0.2217,0.23,0.2236,0.2234,0.2268,0.2269,0.227,0.228,0,0.1958,0.1969,0.1982,0.1997,0.2004,0.2029,0.2055,0.2084,0.2115,0.2149,0.2176,0.221,0.2205,0.2222,0.2243,0.2258,0.2272,0.2251,0.2271,0.2271,0.2215,0.224,0.204,0.2027,0.2285,0.2286,0.2286,0,0.1952,0.1961,0.1973,0.1996,0.2002,0.2018,0.2063,0.209,0.2148,0.2175,0.2221,0.2243,0.2283,0.2272,0.2314,0.2302,0.2303,0.2306,0.2307,0.2241,0.2217,0.2045,0.2027,0.2294,0.2294,0.2293,0.2293,0,0.193,0.1951,0.1957,0.1966,0.1999,0.2015,0.2041,0.2098,0.2131,0.2201,0.223,0.2284,0.231,0.2334,0.2343,0.2335,0.2377,0.2368,0.2308,0.2303,0.2133,0.211,0.2396,0.2396,0.2396,0.2396,0.2396,0,0.1916,0.192,0.1947,0.195,0.1968,0.2002,0.2039,0.2079,0.2147,0.218,0.2243,0.2276,0.2328,0.2355,0.236,0.2347,0.2395,0.2314,0.2308,0.2135,0.2114,0.2347,0.2341,0.2396,0.2396,0.2396,0.2396,0,0.1886,0.1902,0.191,0.1944,0.1956,0.1972,0.2033,0.2059,0.2131,0.218,0.2203,0.2281,0.2316,0.235,0.2386,0.2357,0.236,0.2342,0.2124,0.2091,0.226,0.2255,0.2275,0.2273,0.2271,0.227,0.2268,0,0.1868,0.1869,0.19,0.1904,0.1917,0.1951,0.197,0.2047,0.208,0.2169,0.2182,0.2246,0.2265,0.2299,0.2269,0.2261,0.2327,0.2061,0.2012,0.2259,0.2251,0.2249,0.2247,0.1791,0.1786,0.1782,0.1778,0,0.1838,0.185,0.1857,0.1868,0.1882,0.19,0.1937,0.1963,0.2038,0.2071,0.2118,0.2146,0.2175,0.2073,0.2063,0.2035,0.2048,0.1976,0.2297,0.1858,0.1805,0.1796,0.181,0.1742,0.1745,0.1748,0.175,0.1751,0.1816,0.1811,0.1819,0.1818,0.1832,0.1831,0.1819,0.1856,0.188,0.1892,0.1987,0.1947,0.1949,0.1838,0.1768,0.1706,0.1859,0.1753,0.1764,0.178,0.1729,0.1676,0.1577,0.158,0.1582,0.1584,0.1586,0,0.1773,0.1767,0.1766,0.1749,0.1724,0.1763,0.1771,0.1735,0.1708,0.1738,0.175,0.159,0.1497,0.1506,0.1347,0.1331,0.1315,0.1273,0.1225,0.1262,0.1295,0.1218,0.0931,0.0929,0.0928,0.0926,0,0,0.1751,0.1721,0.1708,0.1639,0.1627,0.1569,0.1555,0.1514,0.1509,0.1444,0.1392,0.1471,0.1482,0.1207,0.1148,0.101,0.114,0.097,0.1495,0.1478,0.151,0.1569,0.1492,0,0,0,0,0]},{"header":{"parameterUnit":"m.s-1","parameterCategory":2,"la1":30.2991,"la2":30.254,"lo1":-89.0895,"lo2":-89.0444,"dy":0.0017,"dx":0.0017,"nx":28,"ny":28,"refTime":"2024-05-02T09:00:00:Z","depth":"2","parameterNumber":3,"parameterNumberName":"V-component_of_CURRENTS"},"data":[0,0,0,0,0,0,0,0,0,0,0,0,0,0,0,0,0,0,0,0,0,0,0,0,0,0,0,0,0,0,0,0,0,0,0,0,0,0,0,0,0,0,0,0,0,0,0,0,0,0,0,0,0,0,0,0,0,0,0.0247,0.0247,0,0.0246,0.0246,0.0246,0.0237,0.0236,0.0236,0.0236,0.0198,0.0197,0.0196,0,0,0,0,0,0,0,0,0,0,0,0,0,0.0223,0.0224,0.0247,0.0247,0.0247,0.0246,0.0246,0.0246,0.0237,0.0236,0.0236,0.0236,0.0198,0.0197,0.0196,0,0,0,0,0,0,0,0,0,0,0,0,0,0.0229,0.0224,0.0247,0.0242,0.0242,0.0246,0.0246,0.0246,0.0237,0.0236,0.0236,0.0236,0.0198,0.0197,0.0196,0.0195,0,0,0.0192,0.0192,0,0,0,0,0,0,0,0,0.0228,0.023,0.0243,0.0243,0.0242,0.0242,0.0224,0.0227,0.0237,0.0238,0.0236,0.0236,0.0209,0.0207,0.0208,0.0193,0.0192,0.0192,0.0191,0.0191,0.0191,0,0,0,0,0,0,0,0.0228,0.023,0.0246,0.0243,0.0243,0.0235,0.0235,0.0225,0.0225,0.0238,0.0238,0.0238,0.0209,0.0209,0.0207,0.0191,0.0192,0.0191,0.019,0.019,0.0189,0.019,0,0,0,0,0,0,0.023,0.0229,0.0246,0.0246,0.0235,0.0235,0.0236,0.0242,0.0226,0.0223,0.0238,0.0238,0.0211,0.0208,0.0205,0.0218,0.0191,0.019,0.0189,0.0188,0.0189,0.019,0,0,0,0,0,0,0.023,0.0232,0.0246,0.0238,0.0239,0.0236,0.0243,0.0242,0.0244,0.0226,0.0223,0.0241,0.0211,0.0207,0.0209,0.0215,0.0189,0.0188,0.0187,0.0188,0.0189,0.0232,0,0,0,0,0,0,0.0229,0.0232,0.0237,0.0238,0.024,0.0254,0.0243,0.0242,0.0245,0.0244,0.0228,0.0224,0.0211,0.0211,0.0207,0.0213,0.0187,0.0186,0.0188,0.0189,0.023,0.0235,0.0239,0,0,0,0,0,0.0228,0.0238,0.0237,0.0239,0.0246,0.0254,0.0255,0.0251,0.0245,0.0251,0.0245,0.0224,0.0216,0.0211,0.0206,0.0212,0.0186,0.0187,0.0189,0.0228,0.0234,0.0239,0,0,0,0,0,0,0.0229,0.0238,0.0237,0.0249,0.0253,0.0253,0.0258,0.0254,0.0254,0.0253,0.0235,0.0232,0.0235,0.022,0.0214,0.0216,0.0197,0.0198,0.0228,0.0233,0.0237,0.0246,0.0186,0,0,0,0,0,0.0232,0.0244,0.0248,0.0257,0.0261,0.0259,0.0262,0.0261,0.0261,0.026,0.0251,0.0242,0.0238,0.0233,0.0227,0.0228,0.0211,0.0229,0.0233,0.0237,0.0242,0.0229,0.0233,0.0195,0.0195,0.0195,0,0,0.0234,0.0242,0.0247,0.0258,0.0261,0.0275,0.026,0.0268,0.0281,0.0256,0.0268,0.0256,0.0243,0.0248,0.0247,0.0236,0.0239,0.0239,0.0242,0.0246,0.0231,0.0235,0.0238,0.0196,0.0196,0.0196,0,0,0.0248,0.0252,0.0268,0.0275,0.0284,0.0286,0.029,0.0294,0.0296,0.0306,0.0293,0.0291,0.0282,0.0277,0.0272,0.0296,0.0263,0.029,0.0316,0.0304,0.0307,0.0309,0.029,0.029,0.029,0.029,0.029,0,0.025,0.0273,0.0272,0.0291,0.0302,0.0294,0.0315,0.0318,0.0322,0.0329,0.0316,0.0314,0.0298,0.0308,0.0315,0.0306,0.029,0.0297,0.031,0.0312,0.0313,0.0293,0.0293,0.0293,0.0292,0.0292,0.0292,0,0.0278,0.0297,0.0307,0.0331,0.0341,0.0358,0.0363,0.0371,0.037,0.0373,0.0382,0.0363,0.0363,0.0354,0.0341,0.0348,0.033,0.0317,0.0296,0.032,0.0297,0.0296,0.0296,0.0295,0.0294,0.0294,0,0,0.0287,0.0321,0.0327,0.0348,0.0366,0.0381,0.04,0.042,0.0442,0.0431,0.0452,0.0439,0.0426,0.042,0.0399,0.0385,0.0378,0.0358,0.0356,0.0338,0.0345,0.0345,0.0343,0.0366,0.0366,0.0366,0.0324,0,0.0313,0.0358,0.0367,0.0411,0.0436,0.0439,0.0461,0.0475,0.0484,0.05,0.0476,0.0488,0.0452,0.0453,0.0434,0.0397,0.0378,0.0391,0.0326,0.0324,0.032,0.0343,0.0359,0.0324,0.0322,0.0322,0.0322,0,0.0343,0.0372,0.0419,0.0462,0.0473,0.0495,0.0535,0.0556,0.057,0.0576,0.0575,0.0556,0.054,0.0503,0.0448,0.0457,0.0406,0.0369,0.0366,0.0352,0.0322,0.0301,0.0322,0.032,0.032,0.032,0.032,0,0.0362,0.041,0.0453,0.0468,0.051,0.053,0.0553,0.0579,0.0613,0.0626,0.0643,0.0617,0.0608,0.0546,0.047,0.0459,0.0402,0.0376,0.0326,0.0324,0.0319,0.0317,0.0334,0.0334,0.0334,0.0334,0.0334,0,0.0394,0.0428,0.0466,0.0491,0.0545,0.056,0.062,0.0636,0.0673,0.0718,0.0684,0.0708,0.0619,0.0575,0.0493,0.0414,0.042,0.0337,0.0319,0.0334,0.0334,0.0315,0.0314,0.0332,0.0333,0.0333,0.0333,0,0.0414,0.0438,0.049,0.0538,0.0558,0.0598,0.0666,0.0712,0.0733,0.0787,0.0792,0.078,0.0728,0.0631,0.0534,0.0453,0.0371,0.0337,0.0359,0.0345,0.029,0.0291,0.0276,0.0276,0.0275,0.0275,0.0275,0,0.043,0.0459,0.0525,0.0561,0.0586,0.0647,0.0695,0.0741,0.0796,0.0837,0.0868,0.0835,0.0831,0.069,0.0554,0.0418,0.0383,0.0325,0.0307,0.0303,0.0287,0.0288,0.029,0.031,0.031,0.031,0.031,0,0.046,0.0482,0.0526,0.0598,0.0654,0.0726,0.0796,0.0849,0.0903,0.0946,0.0995,0.0992,0.0871,0.0757,0.0569,0.0469,0.0349,0.0323,0.0319,0.0328,0.0334,0.0318,0.0318,0.0311,0.0311,0.0311,0.0311,0.0311,0.0481,0.0515,0.0572,0.0642,0.071,0.0796,0.0856,0.093,0.1018,0.1077,0.1083,0.1073,0.0936,0.0713,0.055,0.0367,0.0378,0.0294,0.0295,0.0295,0.0312,0.0318,0.0295,0.0295,0.0295,0.0295,0.0294,0,0.0507,0.0548,0.0611,0.0694,0.0766,0.0802,0.0918,0.0976,0.1071,0.1126,0.1165,0.1024,0.0907,0.0732,0.0483,0.0335,0.0312,0.0262,0.0272,0.0273,0.0274,0.029,0.0267,0.0266,0.0265,0.0265,0,0,0.0521,0.0579,0.0611,0.0724,0.0785,0.0887,0.0954,0.1032,0.11,0.1148,0.1146,0.1152,0.0963,0.0765,0.0569,0.0422,0.0373,0.038,0.0422,0.0459,0.0461,0.0316,0.0346,0,0,0,0,0]}],[{"header":{"parameterUnit":"m.s-1","parameterCategory":2,"la1":30.2991,"la2":30.254,"lo1":-89.0895,"lo2":-89.0444,"dy":0.0017,"dx":0.0017,"nx":28,"ny":28,"refTime":"2024-05-02T09:00:00:Z","depth":"4","parameterNumber":2,"parameterNumberName":"U-component_of_CURRENTS"},"data":[0,0,0,0,0,0,0,0,0,0,0,0,0,0,0,0,0,0,0,0,0,0,0,0,0,0,0,0,0,0,0,0,0,0,0,0,0,0,0,0,0,0,0,0,0,0,0,0,0,0,0,0,0,0,0,0,0,0,0.1319,0.1319,0,0.1342,0.1342,0.1342,0.1378,0.1379,0.1379,0.138,0.1401,0.14,0.14,0,0,0,0,0,0,0,0,0,0,0,0,0,0.13,0.13,0.1319,0.1319,0.132,0.1342,0.1342,0.1342,0.1378,0.1379,0.138,0.138,0.1401,0.1401,0.14,0,0,0,0,0,0,0,0,0,0,0,0,0,0.1312,0.13,0.1319,0.1341,0.1344,0.1342,0.1342,0.1342,0.1377,0.1379,0.138,0.1381,0.1401,0.1401,0.14,0.1375,0,0,0.1399,0.1399,0,0,0,0,0,0,0,0,0.1312,0.1313,0.1337,0.134,0.1342,0.136,0.1343,0.1354,0.1377,0.1363,0.138,0.1382,0.1387,0.1388,0.1387,0.1376,0.1377,0.1399,0.1399,0.1399,0.1399,0,0,0,0,0,0,0,0.1311,0.1312,0.1326,0.1338,0.1341,0.1348,0.1351,0.1345,0.1367,0.1364,0.1367,0.1372,0.1388,0.1387,0.1388,0.1377,0.1399,0.1399,0.1399,0.1399,0.1445,0.1447,0,0,0,0,0,0,0.131,0.1311,0.1326,0.1327,0.1331,0.1348,0.1351,0.1352,0.1367,0.1371,0.1371,0.1374,0.1387,0.1388,0.1389,0.1441,0.1399,0.1399,0.1399,0.1444,0.1446,0.1447,0,0,0,0,0,0,0.1309,0.1311,0.1325,0.1321,0.1324,0.1347,0.1347,0.1351,0.1379,0.1372,0.1376,0.1398,0.1388,0.1389,0.1413,0.1439,0.1399,0.1398,0.1442,0.1445,0.1447,0.1494,0,0,0,0,0,0,0.1309,0.131,0.1324,0.1321,0.1324,0.1341,0.1346,0.1351,0.1379,0.1384,0.1396,0.1398,0.1389,0.1413,0.1413,0.1438,0.1398,0.1441,0.1443,0.1446,0.149,0.1497,0.1503,0,0,0,0,0,0.1308,0.1316,0.1324,0.1327,0.1337,0.1341,0.1344,0.1363,0.138,0.1393,0.1408,0.1399,0.143,0.1414,0.1413,0.1439,0.1439,0.1443,0.1446,0.1488,0.1496,0.1503,0,0,0,0,0,0,0.1317,0.132,0.1329,0.134,0.135,0.1349,0.1366,0.1377,0.1399,0.1413,0.1409,0.1411,0.1446,0.1435,0.1418,0.1462,0.1436,0.1439,0.1468,0.1476,0.1482,0.148,0.1398,0,0,0,0,0,0.1323,0.1333,0.1336,0.1349,0.1355,0.1366,0.1377,0.1389,0.14,0.1413,0.1423,0.1437,0.1451,0.1459,0.1467,0.1482,0.148,0.1502,0.1508,0.1513,0.1513,0.1544,0.1553,0.1458,0.1458,0.1458,0,0,0.1332,0.1336,0.1343,0.1352,0.1363,0.1372,0.1376,0.1398,0.1415,0.1409,0.1446,0.1461,0.1462,0.1488,0.1502,0.1485,0.1539,0.1517,0.1522,0.1518,0.1548,0.1557,0.1565,0.146,0.1459,0.1459,0,0,0.1341,0.1357,0.1364,0.1373,0.1392,0.1396,0.1409,0.1424,0.1445,0.1471,0.1482,0.1514,0.1527,0.1538,0.1542,0.1586,0.1576,0.1596,0.162,0.1651,0.1658,0.1665,0.1672,0.1679,0.1594,0.1594,0.1594,0,0.1355,0.1358,0.1369,0.1377,0.139,0.141,0.1421,0.1439,0.1464,0.1484,0.1494,0.1544,0.1549,0.1581,0.1601,0.16,0.1609,0.1589,0.1658,0.1665,0.1671,0.1676,0.1683,0.1597,0.1597,0.1596,0.1596,0,0.1356,0.1372,0.138,0.1396,0.1411,0.1426,0.1446,0.1476,0.1507,0.1524,0.1577,0.1593,0.1624,0.1636,0.163,0.1681,0.1671,0.1666,0.1637,0.1684,0.1686,0.1692,0.1601,0.16,0.1599,0.1598,0,0,0.1349,0.1376,0.1381,0.1393,0.1423,0.1431,0.147,0.15,0.1535,0.1574,0.1617,0.1654,0.1678,0.1685,0.1695,0.1719,0.1771,0.1715,0.1715,0.1716,0.183,0.1697,0.1691,0.1786,0.1787,0.1789,0.1812,0,0.135,0.1365,0.1381,0.1406,0.1414,0.145,0.148,0.1518,0.1561,0.1609,0.1645,0.1691,0.1692,0.1722,0.1749,0.1771,0.1792,0.1764,0.1788,0.1788,0.166,0.1695,0.1794,0.1817,0.1818,0.182,0.182,0,0.1337,0.1351,0.1374,0.1409,0.1418,0.1445,0.1504,0.1536,0.1604,0.1642,0.17,0.173,0.1783,0.1777,0.1835,0.1821,0.1831,0.1839,0.1841,0.1702,0.1667,0.1762,0.1832,0.1831,0.183,0.1829,0.1829,0,0.1309,0.1342,0.1363,0.1375,0.142,0.1452,0.1488,0.1554,0.1592,0.1677,0.1715,0.1779,0.1821,0.1853,0.1873,0.1867,0.1922,0.1913,0.1798,0.1788,0.188,0.1872,0.195,0.195,0.195,0.195,0.195,0,0.1282,0.1301,0.1359,0.1368,0.1405,0.1446,0.1502,0.155,0.1628,0.1665,0.1737,0.177,0.1847,0.188,0.1892,0.1856,0.194,0.18,0.1787,0.1899,0.1893,0.1884,0.1876,0.1951,0.1951,0.195,0.195,0,0.1239,0.1276,0.1304,0.1366,0.1391,0.1422,0.1506,0.1538,0.1622,0.1677,0.1707,0.1788,0.1822,0.1868,0.1917,0.1861,0.1854,0.1821,0.193,0.1923,0.1694,0.1688,0.1688,0.1684,0.168,0.1677,0.1674,0,0.1212,0.1223,0.1299,0.1321,0.1355,0.1412,0.1444,0.1532,0.1565,0.1663,0.1673,0.1743,0.1779,0.1737,0.1799,0.1798,0.1779,0.1755,0.1725,0.1681,0.1669,0.1669,0.1669,0.1668,0.1667,0.1666,0.1665,0,0.1162,0.1206,0.1231,0.1279,0.132,0.1352,0.1409,0.1423,0.1508,0.1596,0.1596,0.1603,0.1631,0.1654,0.1663,0.1663,0.1759,0.1715,0.1723,0.1694,0.1656,0.1648,0.1652,0.1652,0.1654,0.1655,0.1656,0,0.1134,0.1143,0.1189,0.1215,0.1266,0.1271,0.131,0.1331,0.1371,0.1472,0.1469,0.1536,0.1615,0.1584,0.1595,0.1579,0.1553,0.1495,0.1514,0.1529,0.1464,0.1392,0.1292,0,0,0,0,0,0.1094,0.109,0.1115,0.1133,0.1178,0.1206,0.1269,0.1308,0.1389,0.135,0.1405,0.1419,0.1417,0.1459,0.141,0.1527,0.1566,0.1462,0.1511,0.1579,0.1594,0.1531,0,0,0,0,0,0,0.1066,0.109,0.1087,0.1057,0.1056,0.1089,0.1128,0.1182,0.1167,0.1256,0.1269,0.1328,0.136,0.1433,0.1383,0.1393,0.1391,0.1509,0.1505,0.1571,0.1584,0.1597,0.1537,0,0,0,0,0]},{"header":{"parameterUnit":"m.s-1","parameterCategory":2,"la1":30.2991,"la2":30.254,"lo1":-89.0895,"lo2":-89.0444,"dy":0.0017,"dx":0.0017,"nx":28,"ny":28,"refTime":"2024-05-02T09:00:00:Z","depth":"4","parameterNumber":3,"parameterNumberName":"V-component_of_CURRENTS"},"data":[0,0,0,0,0,0,0,0,0,0,0,0,0,0,0,0,0,0,0,0,0,0,0,0,0,0,0,0,0,0,0,0,0,0,0,0,0,0,0,0,0,0,0,0,0,0,0,0,0,0,0,0,0,0,0,0,0,0,0.0215,0.0216,0,0.0229,0.0229,0.0229,0.0234,0.0234,0.0233,0.0233,0.0235,0.0235,0.0235,0,0,0,0,0,0,0,0,0,0,0,0,0,0.0186,0.0187,0.0215,0.0216,0.0216,0.0229,0.0229,0.0229,0.0234,0.0234,0.0233,0.0233,0.0235,0.0235,0.0235,0,0,0,0,0,0,0,0,0,0,0,0,0,0.0199,0.0187,0.0215,0.0219,0.022,0.0229,0.0229,0.0229,0.0234,0.0234,0.0233,0.0233,0.0235,0.0235,0.0235,0.0239,0,0,0.0236,0.0236,0,0,0,0,0,0,0,0,0.0198,0.02,0.0219,0.0219,0.022,0.0229,0.0219,0.0232,0.0234,0.0229,0.0233,0.0233,0.0232,0.0233,0.0236,0.0239,0.0239,0.0236,0.0236,0.0236,0.0236,0,0,0,0,0,0,0,0.0198,0.02,0.0221,0.0219,0.0219,0.0218,0.022,0.0222,0.0231,0.0229,0.0229,0.0231,0.0232,0.0236,0.0236,0.0239,0.0236,0.0236,0.0236,0.0236,0.0257,0.0257,0,0,0,0,0,0,0.0196,0.0199,0.022,0.0221,0.0208,0.0219,0.0221,0.0226,0.0231,0.0232,0.0231,0.0231,0.0235,0.0236,0.0236,0.0257,0.0236,0.0236,0.0236,0.0257,0.0257,0.0258,0,0,0,0,0,0,0.0196,0.0198,0.022,0.021,0.0213,0.0219,0.0226,0.0227,0.0234,0.0232,0.0233,0.0237,0.0235,0.0236,0.0248,0.0256,0.0236,0.0237,0.0256,0.0257,0.0257,0.0288,0,0,0,0,0,0,0.0195,0.0198,0.0204,0.021,0.0213,0.023,0.0226,0.0227,0.0235,0.0235,0.0238,0.0238,0.0235,0.0248,0.0248,0.0256,0.0237,0.0256,0.0256,0.0257,0.0287,0.029,0.0293,0,0,0,0,0,0.0194,0.0203,0.0204,0.0207,0.022,0.0231,0.0232,0.0236,0.0235,0.0242,0.0247,0.0238,0.0253,0.0249,0.0249,0.0257,0.0255,0.0256,0.0257,0.0285,0.0289,0.0293,0,0,0,0,0,0,0.0192,0.0204,0.0206,0.0218,0.0225,0.0231,0.0238,0.024,0.0249,0.0251,0.0248,0.0248,0.0261,0.0255,0.0251,0.0265,0.0251,0.0252,0.0272,0.0276,0.0279,0.0285,0.0237,0,0,0,0,0,0.0194,0.0206,0.0214,0.0224,0.0228,0.0234,0.0239,0.0242,0.025,0.0254,0.0257,0.0259,0.0265,0.0268,0.027,0.0281,0.0267,0.0285,0.0288,0.029,0.0295,0.0283,0.0286,0.0261,0.0261,0.0261,0,0,0.0196,0.0205,0.0211,0.0225,0.0231,0.0246,0.0237,0.0249,0.0263,0.0253,0.0274,0.0271,0.027,0.0283,0.0287,0.028,0.0289,0.0291,0.0294,0.0297,0.0285,0.0287,0.0289,0.0262,0.0261,0.0261,0,0,0.0208,0.0214,0.0228,0.0238,0.025,0.0256,0.026,0.027,0.0277,0.0294,0.029,0.0295,0.0304,0.0306,0.0307,0.0328,0.0305,0.0325,0.0346,0.0335,0.0337,0.0338,0.0319,0.0318,0.0326,0.0326,0.0326,0,0.0209,0.0231,0.0233,0.025,0.0263,0.0262,0.0282,0.0289,0.0303,0.0313,0.0305,0.032,0.0316,0.0332,0.0339,0.0335,0.0321,0.0333,0.0338,0.034,0.0341,0.032,0.0319,0.0328,0.0328,0.0328,0.0327,0,0.0232,0.0251,0.0261,0.0285,0.0297,0.0314,0.0324,0.0336,0.0341,0.0349,0.0365,0.0359,0.0368,0.0364,0.0359,0.0366,0.0351,0.0343,0.0329,0.0345,0.0323,0.0321,0.033,0.033,0.0329,0.0329,0,0,0.0237,0.0271,0.0277,0.0297,0.0319,0.0335,0.0356,0.038,0.0401,0.0401,0.0423,0.0424,0.0416,0.0417,0.0405,0.0394,0.0385,0.0374,0.0372,0.0354,0.0353,0.0335,0.0331,0.0376,0.0377,0.0377,0.0333,0,0.0258,0.0298,0.031,0.0352,0.0375,0.0384,0.0408,0.0427,0.044,0.0459,0.0446,0.0463,0.0438,0.0443,0.0427,0.0401,0.0383,0.0397,0.0341,0.0339,0.0321,0.033,0.0377,0.0331,0.0331,0.0331,0.033,0,0.0281,0.0307,0.0352,0.0395,0.0407,0.0431,0.0473,0.0495,0.0514,0.0524,0.0528,0.0517,0.0507,0.0479,0.0435,0.0444,0.0402,0.0372,0.037,0.0342,0.0318,0.0313,0.0327,0.0328,0.0328,0.0328,0.0328,0,0.0291,0.0338,0.0378,0.0394,0.0438,0.0462,0.0487,0.0517,0.0548,0.0566,0.0581,0.0565,0.056,0.0509,0.0446,0.0441,0.0387,0.0372,0.0312,0.031,0.0325,0.0324,0.0334,0.0334,0.0334,0.0334,0.0334,0,0.0313,0.0346,0.0389,0.0412,0.0464,0.0486,0.0542,0.0562,0.0598,0.0636,0.0616,0.0629,0.0567,0.0528,0.0461,0.0385,0.0398,0.0318,0.03,0.0338,0.0339,0.0324,0.0323,0.0332,0.0333,0.0333,0.0333,0,0.0322,0.0349,0.0399,0.0451,0.0473,0.0511,0.058,0.0619,0.0645,0.0688,0.0694,0.0682,0.0632,0.0558,0.0477,0.0409,0.0335,0.0301,0.0347,0.0333,0.0258,0.0259,0.023,0.0229,0.0229,0.0228,0.0227,0,0.0331,0.0357,0.0426,0.046,0.0488,0.0548,0.0592,0.0641,0.0683,0.0718,0.0736,0.0706,0.0681,0.0552,0.0474,0.0346,0.0321,0.0271,0.0263,0.0262,0.0248,0.0251,0.0254,0.0226,0.0226,0.0226,0.0225,0,0.0346,0.0372,0.0412,0.0479,0.0533,0.0598,0.066,0.0693,0.0744,0.0765,0.0765,0.0703,0.0646,0.0551,0.0453,0.036,0.03,0.0262,0.0263,0.0254,0.0257,0.0244,0.0248,0.0223,0.0223,0.0223,0.0223,0,0.0356,0.0383,0.0435,0.0496,0.0564,0.0626,0.0662,0.0706,0.0749,0.0779,0.0778,0.0716,0.069,0.0558,0.0471,0.0378,0.0346,0.0295,0.0293,0.0295,0.0325,0.0338,0.0317,0,0,0,0,0,0.0363,0.0393,0.0447,0.0512,0.0579,0.062,0.0699,0.073,0.0773,0.0772,0.0776,0.0719,0.0595,0.0554,0.0457,0.0449,0.0327,0.0329,0.0268,0.0207,0.021,0.0232,0,0,0,0,0,0,0.0365,0.0413,0.0442,0.0516,0.0559,0.0635,0.0687,0.0717,0.0722,0.0745,0.0689,0.0667,0.0558,0.0642,0.0444,0.042,0.036,0.0281,0.0278,0.0205,0.0208,0.0211,0.0234,0,0,0,0,0]}]]